# Land Stadt Wetter Temperatur Luftdruck Luftfeuchtigkeit Sichtweite Windgeschwindigkeit Windrichtung Ortszeit
1 us Tucson Clear 26 1008 10 16093 21 250 02.08.2018 14:21
2 eg Kairo Clouds 30 1006 13 6000 33 160 02.08.2018 14:22
3 us Las Vegas Clouds 23 1004 14 16093 22 220 02.08.2018 14:21
4 kr Seoul Clear 6 1023 19 10000 5 340 02.08.2018 14:21
5 cn Lhasa Snow 0 1020 20 0 3 67 02.08.2018 14:22
6 us Death Valley Clear 18 1003 23 0 16 223 02.08.2018 14:22
7 bo Potisi Rain 9 1012 24 0 3 54 02.08.2018 14:22
8 sa Riad Clouds 23 1019 25 10000 5 100 02.08.2018 14:21
9 in Jagatsukh Clouds 4 1025 26 0 12 43 02.08.2018 14:22
10 pe Cusco Rain 11 1016 28 0 10 2 02.08.2018 14:23
11 qa Doha Clouds 25 1013 34 10000 9 320 02.08.2018 14:23
12 au Sydney Clouds 21 1013 35 10000 21 310 02.08.2018 14:22
13 fr Nizza Clear 11 1022 37 10000 15 350 02.08.2018 14:22
14 us Denver Clouds 13 1009 37 16093 18 170 02.08.2018 14:21
15 mx Mexiko Stadt Clouds 24 1021 38 12874 15 220 02.08.2018 14:21
16 ae Dubai Clouds 27 1011 39 10000 4 0 02.08.2018 14:21
17 mn Uliastai Clear -4 1025 41 0 7 121 02.08.2018 14:23
18 cl Santiago Clouds 22 1010 43 10000 13 210 02.08.2018 14:23
19 au Alice Springs Clear 18 1021 45 10000 18 70 02.08.2018 14:21
20 tr Alanya Clouds 17 1017 45 8000 18 97 02.08.2018 14:22
21 it Rom Clear 10 1018 45 10000 5 340 02.08.2018 14:23
22 ru Jakutsk Clouds -2 1014 46 10000 25 290 02.08.2018 14:22
23 jp Nagasaki Clouds 13 1020 47 10000 26 360 02.08.2018 14:21
24 cn Peking Clouds 9 1029 49 10000 4 0 02.08.2018 14:23
25 mn Ulaanbaatar Clouds -2 1022 50 10000 5 55 02.08.2018 14:23
26 nz Wellington Clouds 19 1027 52 10000 26 10 02.08.2018 14:23
27 us Los Angeles Clouds 17 1011 52 16093 9 260 02.08.2018 14:22
28 cn Shanghai Clouds 10 1028 53 10000 22 50 02.08.2018 14:21
29 gl Nuuk Clouds -4 1004 53 0 31 60 02.08.2018 14:22
30 iq Bagdad Clouds 14 1019 54 10000 4 0 02.08.2018 14:22
31 ua Kiew Clouds -1 1029 54 7000 7 290 02.08.2018 14:21
32 fr Bordeaux Clear 12 1015 54 10000 18 140 02.08.2018 14:21
33 de Oberstdorf Clear 2 1022 55 10000 4 0 02.08.2018 14:21
34 de Torfhaus Clear 4 1027 55 0 6 90 02.08.2018 14:22
35 de Trier Clear 5 1023 56 10000 15 50 02.08.2018 14:21
36 at Wien Clear 3 1027 56 10000 13 310 02.08.2018 14:22
37 de Nürnberg Clear 4 1025 56 10000 13 90 02.08.2018 14:21
38 bg Warna Clouds 8 1021 57 10000 18 60 02.08.2018 14:21
39 ar Esquel Clouds 11 1011 57 10000 22 270 02.08.2018 14:22
40 it Mailand Clear 10 1024 57 10000 5 60 02.08.2018 14:21
41 de Bremen Clear 6 1026 60 10000 17 120 02.08.2018 14:22
42 bs Nassau Clouds 23 1015 60 10000 8 70 02.08.2018 14:22
43 de Braunschweig Clouds 4 1028 60 10000 5 80 02.08.2018 14:21
44 de Helgoland Clouds 6 1027 60 10000 8 130 02.08.2018 14:22
45 de Köln Clear 6 1024 60 10000 8 120 02.08.2018 14:21
46 de Freiburg Clear 5 1022 61 10000 17 270 02.08.2018 14:22
47 us Miami Clouds 25 1015 61 16093 11 170 02.08.2018 14:23
48 us Honolulu Clouds 27 1015 61 16093 17 140 02.08.2018 14:22
49 fi Rovaniemi Clouds -8 1011 61 10000 15 340 02.08.2018 14:21
50 sb Honiara Clouds 32 1007 62 10000 22 290 02.08.2018 14:22
51 de Frankfurt Clear 7 1024 62 10000 17 10 02.08.2018 14:22
52 au Perth Clouds 17 1017 63 10000 15 90 02.08.2018 14:21
53 br Rio de Janeiro Clouds 23 1015 64 10000 8 200 02.08.2018 14:22
54 ar Buenos Aires Clear 19 1010 64 10000 8 320 02.08.2018 14:22
55 gb Manchester Clouds 8 1016 65 10000 9 0 02.08.2018 14:21
56 de Stuttgart Clear 4 1023 65 10000 2 0 02.08.2018 14:22
57 de Emden Clear 6 1026 65 7000 9 120 02.08.2018 14:21
58 af Kabul Clouds 10 1021 66 10000 5 310 02.08.2018 14:21
59 et Addis Abeba Clouds 15 1026 67 10000 4 360 02.08.2018 14:23
60 fi Helsinki Clear -2 1021 68 10000 17 260 02.08.2018 14:21
61 ph Manila Clouds 29 1014 69 10000 9 120 02.08.2018 14:21
62 de Hannover Clear 4 1027 69 10000 8 100 02.08.2018 14:21
63 de Dresden Clear 2 1028 69 10000 5 170 02.08.2018 14:22
64 de Berlin Clear 4 1030 69 10000 4 0 02.08.2018 14:21
65 ad Andorra la Vella Clouds 5 1012 70 0 10 204 02.08.2018 14:22
66 gb Glasgow Clouds 8 1012 70 10000 21 190 02.08.2018 14:21
67 fr Paris Clear 8 1019 70 10000 11 70 02.08.2018 14:22
68 mx Veracruz Clouds 29 1006 70 6437 8 70 02.08.2018 14:21
69 jp Tokio Clouds 13 1010 71 10000 17 20 02.08.2018 14:22
70 tr Ankara Clouds 9 1017 71 10000 4 0 02.08.2018 14:23
71 es Madrid Clouds 11 1017 71 10000 17 120 02.08.2018 14:23
72 ch Bern Clear 4 1021 71 10000 2 0 02.08.2018 14:23
73 uy Montevideo Clear 18 1012 72 10000 5 70 02.08.2018 14:22
74 vn Hanoi Clouds 18 1019 72 10000 13 30 02.08.2018 14:21
75 ma Marrakesch Clouds 16 1016 72 10000 8 240 02.08.2018 14:23
76 de München Clear 3 1023 73 10000 5 80 02.08.2018 14:21
77 mv Male Clouds 29 1010 74 10000 17 100 02.08.2018 14:23
78 at Innsbruck Clear 1 1025 74 10000 4 0 02.08.2018 14:23
79 se Stockholm Clouds 0 1025 74 10000 9 271 02.08.2018 14:23
80 ru Moskau Clear -2 1020 74 10000 11 240 02.08.2018 14:22
81 pg Port Moresby Haze 29 1012 74 10000 9 350 02.08.2018 14:21
82 ch Andermatt Clouds 3 1022 74 0 9 179 02.08.2018 14:23
83 ar Ushuaia Clouds 5 978 75 10000 33 230 02.08.2018 14:22
84 us Chicago Clouds 6 1020 75 16093 18 90 02.08.2018 14:23
85 ca Montreal Clouds 8 1016 75 14484 8 20 02.08.2018 14:22
86 ie Dublin Clouds 9 1010 76 10000 28 150 02.08.2018 14:21
87 de Hiddensee Clouds 3 1034 76 0 2 157 02.08.2018 14:21
88 us New York Clouds 10 1017 76 16093 15 150 02.08.2018 14:22
89 de Magdeburg Clear 2 1029 76 0 10 130 02.08.2018 14:22
90 ru Anadyr Snow -14 1003 77 5000 32 330 02.08.2018 14:23
91 it Palermo Clear 10 1004 77 0 14 341 02.08.2018 14:22
92 de Hamburg Clear 3 1028 77 10000 5 110 02.08.2018 14:21
93 do Santo Domingo Clouds 26 1012 78 10000 12 11 02.08.2018 14:21
94 is Reykjavik Snow -5 1002 79 2500 33 60 02.08.2018 14:22
95 de Kassel Clear 3 1026 81 6000 5 300 02.08.2018 14:21
96 gb London Clear 7 1019 81 9000 17 100 02.08.2018 14:22
97 gr Athen Rain 10 1004 81 10000 15 320 02.08.2018 14:22
98 bo La Paz Rain 7 1037 81 8000 21 210 02.08.2018 14:22
99 pt Lissabon Clouds 16 1011 82 10000 28 160 02.08.2018 14:22
100 es Tarifa Clouds 15 1018 82 10000 31 80 02.08.2018 14:21
101 es Las Palmas de Gran Canaria Clouds 19 1016 82 10000 5 250 02.08.2018 14:21
102 fj Suva Rain 27 1009 82 0 7 116 02.08.2018 14:21
103 th Bangkok Clouds 30 1012 83 10000 15 100 02.08.2018 14:21
104 id Jakarta Haze 27 1011 83 4000 9 180 02.08.2018 14:22
105 in Mumbai Haze 26 1009 83 3000 7 38 02.08.2018 14:22
106 in Nagpur Haze 23 1012 83 3000 4 30 02.08.2018 14:21
107 no Hammerfest Snow -4 1008 85 10000 35 270 02.08.2018 14:22
108 no Oslo Clouds 2 1023 86 10000 8 170 02.08.2018 14:23
109 tr Istanbul Rain 9 1016 87 10000 18 30 02.08.2018 14:23
110 es Sevilla Clouds 13 1015 87 10000 8 350 02.08.2018 14:22
111 es Palma de Mallorca Clear 10 1022 87 10000 8 350 02.08.2018 14:22
112 cd Kisangani Rain 22 1010 87 0 3 187 02.08.2018 14:23
113 es Barcelona Clouds 9 1021 87 10000 11 320 02.08.2018 14:22
114 mg Antananarivo Clouds 16 1019 87 10000 13 100 02.08.2018 14:21
115 ke Nairobi Clouds 17 1021 88 10000 8 80 02.08.2018 14:22
116 ck Avarua Rain 27 1009 88 10000 18 360 02.08.2018 14:22
117 ma Casablanca Mist 14 1015 93 4700 5 120 02.08.2018 14:23
118 de Flensburg Clouds 3 1027 93 0 17 170 02.08.2018 14:21
119 ru Werchojansk Snow -9 1007 93 0 9 142 02.08.2018 14:22
120 bg Sofia Rain 4 1019 93 10000 5 230 02.08.2018 14:21
121 au Darwin Clouds 25 1011 94 10000 4 360 02.08.2018 14:22
122 ec San Cristobal Clouds 26 1006 94 10000 11 360 02.08.2018 14:22
123 us Nome Snow 1 993 97 2414 28 170 02.08.2018 14:23
124 ru Amderma Clouds -6 998 97 0 20 238 02.08.2018 14:23
125 za Kapstadt Fog 16 1012 100 300 11 330 02.08.2018 14:22
126 br Manaus Clouds 27 1009 100 10000 3 70 02.08.2018 14:21
127 ru Surgut Rain 2 1019 100 5000 18 180 02.08.2018 14:23
128 us Fairbanks Rain 1 1010 100 11265 7 162 02.08.2018 14:23